K9JWM Weather Reports


Display with metric or nautical units.
time (UTC)temp
F
wind
direction
speed
MPH
gust
MPH
rain 1hr
in
rain 24hr
in
rain mn
in
humidity
%
barometer
mb
20260502204005 57 224 11.0 26.0 0.00 0.00 0.00 35 1012.9
20260502203210 57 228 13.0 18.0 0.00 0.00 0.00 37 1012.9
20260502203005 56 228 6.0 17.0 0.00 0.00 0.00 35 1012.9
20260502202006 57 244 13.0 17.0 0.00 0.00 0.00 37 1013.0
20260502201712 57 238 12.0 15.0 0.00 0.00 0.00 37 1013.2
20260502201006 57 259 12.0 20.0 0.00 0.00 0.00 37 1013.0
20260502200211 56 267 8.0 16.0 0.00 0.00 0.00 35 1013.3
20260502195005 56 243 9.0 14.0 0.00 0.00 0.00 36 1013.4
20260502194710 56 247 5.0 6.0 0.00 0.00 0.00 33 1013.6
20260502194005 55 245 7.0 10.0 0.00 0.00 0.00 34 1013.7
20260502193211 55 252 3.0 3.0 0.00 0.00 0.00 33 1013.8
20260502193005 55 252 9.0 20.0 0.00 0.00 0.00 35 1013.8
20260502192005 55 241 10.0 14.0 0.00 0.00 0.00 37 1014.1
20260502191710 55 234 7.0 14.0 0.00 0.00 0.00 31 1014.0
20260502190211 55 252 7.0 12.0 0.00 0.00 0.00 36 1014.3
20260502190005 55 215 3.0 10.0 0.00 0.00 0.00 36 1014.3
20260502185005 55 254 9.0 12.0 0.00 0.00 0.00 34 1014.5
20260502184711 54 270 3.0 7.0 0.00 0.00 0.00 32 1014.5
20260502184005 54 246 9.0 18.0 0.00 0.00 0.00 34 1014.8
20260502183210 54 232 8.0 13.0 0.00 0.00 0.00 39 1014.8
20260502183005 54 238 10.0 17.0 0.00 0.00 0.00 36 1014.9
20260502181710 55 42 2.0 3.0 0.00 0.00 0.00 35 1014.9
20260502181005 54 71 5.0 10.0 0.00 0.00 0.00 32 1015.0
20260502180211 54 7 2.0 6.0 0.00 0.00 0.00 35 1015.2
20260502170210 53 342 3.0 7.0 0.00 0.00 0.00 32 1016.2
20260502164005 52 4 6.0 12.0 0.00 0.00 0.00 38 1016.6
20260502163210 51 246 5.0 9.0 0.00 0.00 0.00 37 1016.6
20260502162004 51 257 5.0 8.0 0.00 0.00 0.00 39 1016.7
20260502161710 51 276 2.0 3.0 0.00 0.00 0.00 37 1016.8
20260502161005 50 257 7.0 18.0 0.00 0.00 0.00 38 1017.0
20260502160209 50 249 8.0 12.0 0.00 0.00 0.00 40 1017.0
20260502152005 48 294 2.0 8.0 0.00 0.00 0.00 42 1017.4
20260502151711 48 221 3.0 6.0 0.00 0.00 0.00 42 1017.6
20260502151005 48 241 1.0 8.0 0.00 0.00 0.00 43 1017.6
20260502150210 47 228 6.0 8.0 0.00 0.00 0.00 46 1017.6
20260502130209 36 227 5.0 5.0 0.00 0.00 0.00 70 1018.5
20260502123211 28 184 0.0 1.0 0.00 0.00 0.00 88 1018.7
20260502123005 28 184 0.0 3.0 0.00 0.00 0.00 88 1018.7
20260502121710 27 93 0.0 0.0 0.00 0.00 0.00 88 1018.8
20260502121005 27 93 0.0 0.0 0.00 0.00 0.00 88 1018.7
20260502120209 27 93 0.0 0.0 0.00 0.00 0.00 88 1018.7
20260502115005 27 93 0.0 0.0 0.00 0.00 0.00 88 1018.7
20260502114710 27 93 0.0 0.0 0.00 0.00 0.00 88 1018.7
20260502114005 26 93 0.0 0.0 0.00 0.00 0.00 88 1018.7
20260502113210 26 93 0.0 0.0 0.00 0.00 0.00 88 1018.7
20260502113005 26 93 0.0 0.0 0.00 0.00 0.00 88 1018.6
20260502112005 26 93 0.0 0.0 0.00 0.00 0.00 88 1018.6
20260502111711 26 93 0.0 0.0 0.00 0.00 0.00 88 1018.6
20260502111005 26 93 0.0 0.0 0.00 0.00 0.00 88 1018.6
20260502110210 26 93 0.0 0.0 0.00 0.00 0.00 88 1018.6
20260502110004 26 93 0.0 0.0 0.00 0.00 0.00 88 1018.6
20260502105005 26 93 0.0 0.0 0.00 0.00 0.00 88 1018.7
20260502104710 26 93 0.0 0.0 0.00 0.00 0.00 87 1018.7
20260502103210 27 93 0.0 0.0 0.00 0.00 0.00 87 1018.7
20260502102005 27 93 0.0 0.0 0.00 0.00 0.00 88 1018.7
20260502101710 27 93 0.0 0.0 0.00 0.00 0.00 87 1018.7
20260502101005 27 93 0.0 0.0 0.00 0.00 0.00 88 1018.8
20260502091005 28 93 0.0 0.0 0.00 0.00 0.00 89 1018.8
20260502071005 29 93 0.0 0.0 0.00 0.00 0.00 88 1019.1
20260502070210 29 93 0.0 0.0 0.00 0.00 0.00 88 1019.2
20260502064709 30 93 0.0 0.0 0.00 0.00 0.00 87 1019.4
20260502064005 30 93 0.0 0.0 0.00 0.00 0.00 87 1019.3
20260502063209 30 93 0.0 0.0 0.00 0.00 0.00 86 1019.4
20260502063005 30 93 0.0 0.0 0.00 0.00 0.00 86 1019.4
20260502061709 30 93 0.0 0.0 0.00 0.00 0.00 85 1019.4
20260502061004 30 93 0.0 0.0 0.00 0.00 0.00 85 1019.3
20260502060209 30 93 0.0 0.0 0.00 0.00 0.00 85 1019.4
20260502054710 31 93 0.0 0.0 0.00 0.00 0.00 83 1019.3
20260502054004 31 93 0.0 0.0 0.00 0.00 0.00 83 1019.3
20260502053211 31 93 0.0 0.0 0.00 0.00 0.00 82 1019.2
20260502053004 31 93 0.0 0.0 0.00 0.00 0.00 81 1019.2
20260502051711 31 93 0.0 0.0 0.00 0.00 0.00 79 1019.4
20260502051004 31 93 0.0 0.0 0.00 0.00 0.00 79 1019.3
20260502050209 32 93 0.0 0.0 0.00 0.00 0.00 78 1019.5
20260502050004 32 93 0.0 0.0 0.00 0.00 0.00 78 1019.5
20260502045004 32 93 0.0 0.0 0.00 0.00 0.00 77 1019.5
20260502044709 32 93 0.0 0.0 0.00 0.00 0.00 77 1019.5
20260502044005 32 93 0.0 0.0 0.00 0.00 0.00 77 1019.5
20260502043210 33 93 0.0 0.0 0.00 0.00 0.00 76 1019.5
20260502043005 33 93 0.0 0.0 0.00 0.00 0.00 76 1019.5
20260502041711 33 93 0.0 0.0 0.00 0.00 0.00 74 1019.6
20260502041005 33 93 0.0 2.0 0.00 0.00 0.00 72 1019.6
20260502040209 34 93 0.0 2.0 0.00 0.00 0.00 69 1019.6
20260502035005 34 92 0.0 0.0 0.00 0.00 0.00 67 1019.5
20260502034710 34 92 0.0 0.0 0.00 0.00 0.00 65 1019.5
20260502034004 35 92 0.0 0.0 0.00 0.00 0.00 64 1019.5
20260502033209 35 92 0.0 0.0 0.00 0.00 0.00 63 1019.4
20260502033004 35 92 0.0 0.0 0.00 0.00 0.00 63 1019.5
20260502032005 36 92 0.0 0.0 0.00 0.00 0.00 62 1019.5
20260502031710 36 92 0.0 0.0 0.00 0.00 0.00 62 1019.5
20260502031004 36 92 0.0 0.0 0.00 0.00 0.00 62 1019.5
20260502030210 37 92 0.0 0.0 0.00 0.00 0.00 61 1019.4
20260502030004 37 92 0.0 0.0 0.00 0.00 0.00 62 1019.4
20260502025004 37 92 0.0 0.0 0.00 0.00 0.00 61 1019.4
20260502024709 37 92 0.0 0.0 0.00 0.00 0.00 60 1019.5
20260502024005 38 92 0.0 0.0 0.00 0.00 0.00 60 1019.5
20260502023210 38 92 0.0 0.0 0.00 0.00 0.00 59 1019.5
20260502021709 39 92 0.0 0.0 0.00 0.00 0.00 57 1019.4
20260502021004 39 92 0.0 0.0 0.00 0.00 0.00 56 1019.4
20260502020209 40 92 0.0 0.0 0.00 0.00 0.00 55 1019.4
20260502020004 40 92 0.0 3.0 0.00 0.00 0.00 54 1019.4
20260502015004 41 89 0.0 2.0 0.00 0.00 0.00 54 1019.3
20260502014710 41 89 0.0 0.0 0.00 0.00 0.00 54 1019.2
20260502014004 41 89 0.0 5.0 0.00 0.00 0.00 52 1019.2
20260502013210 42 77 0.0 5.0 0.00 0.00 0.00 52 1019.1
20260502013004 42 61 0.0 1.0 0.00 0.00 0.00 52 1019.0
20260502011710 43 61 0.0 1.0 0.00 0.00 0.00 51 1019.0
20260502010210 44 71 0.0 2.0 0.00 0.00 0.00 50 1018.9
20260502010005 44 71 1.0 3.0 0.00 0.00 0.00 49 1019.0
20260502005004 45 71 1.0 5.0 0.00 0.00 0.00 47 1018.9
20260502004709 45 82 0.0 3.0 0.00 0.00 0.00 47 1019.0
20260502004004 46 82 1.0 3.0 0.00 0.00 0.00 46 1019.0
20260502003210 46 83 0.0 0.0 0.00 0.00 0.00 46 1019.0
20260502003004 46 83 1.0 3.0 0.00 0.00 0.00 45 1019.0
20260502002004 46 53 1.0 5.0 0.00 0.00 0.00 45 1019.0
20260502001710 46 30 0.0 0.0 0.00 0.00 0.00 43 1019.0
20260502001004 46 80 1.0 6.0 0.00 0.00 0.00 42 1018.9
20260502000211 46 32 1.0 2.0 0.00 0.00 0.00 43 1018.9
20260502000004 47 17 2.0 8.0 0.00 0.00 0.00 45 1018.9
20260501235004 47 76 1.0 5.0 0.00 0.00 0.00 44 1018.8
20260501234710 47 78 2.0 3.0 0.00 0.00 0.00 42 1018.8
20260501234004 47 69 3.0 10.0 0.00 0.00 0.00 41 1018.8
20260501233209 47 62 3.0 10.0 0.00 0.00 0.00 42 1018.9
20260501233005 47 65 1.0 8.0 0.00 0.00 0.00 41 1018.8
20260501232005 47 33 2.0 7.0 0.00 0.00 0.00 42 1018.8
20260501231709 47 60 2.0 7.0 0.00 0.00 0.00 44 1018.9
20260501231004 46 326 2.0 6.0 0.00 0.00 0.00 44 1018.8
20260501230210 47 311 1.0 3.0 0.00 0.00 0.00 42 1018.9
20260501230004 47 342 3.0 8.0 0.00 0.00 0.00 42 1018.9
20260501225005 46 316 3.0 7.0 0.00 0.00 0.00 42 1018.9
20260501224709 47 276 1.0 3.0 0.00 0.00 0.00 42 1018.9
20260501224004 47 332 3.0 12.0 0.00 0.00 0.00 43 1019.0
20260501223210 46 35 5.0 7.0 0.00 0.00 0.00 45 1018.8
20260501223004 46 332 2.0 8.0 0.00 0.00 0.00 43 1018.8
20260501221710 47 309 2.0 6.0 0.00 0.00 0.00 43 1019.0
20260501221004 46 203 2.0 8.0 0.00 0.00 0.00 41 1018.9
20260501220209 47 270 3.0 7.0 0.00 0.00 0.00 39 1019.0
20260501220004 48 350 3.0 10.0 0.00 0.00 0.00 40 1018.9
20260501215004 46 55 2.0 10.0 0.00 0.00 0.00 43 1019.0
20260501214709 47 302 1.0 8.0 0.00 0.00 0.00 41 1018.9
20260501214004 48 65 3.0 9.0 0.00 0.00 0.00 40 1018.9
20260501213210 47 7 2.0 9.0 0.00 0.00 0.00 40 1019.2
20260501213005 47 14 4.0 13.0 0.00 0.00 0.00 42 1019.1
20260501212004 47 29 3.0 12.0 0.00 0.00 0.00 43 1019.2
20260501211709 47 62 2.0 3.0 0.00 0.00 0.00 40 1019.1
20260501211005 48 47 7.0 12.0 0.00 0.00 0.00 39 1018.9
20260501210210 46 68 5.0 7.0 0.00 0.00 0.00 41 1019.2
20260501210004 45 36 4.0 10.0 0.00 0.00 0.00 42 1019.1
20260501205004 47 340 2.0 7.0 0.00 0.00 0.00 43 1019.0
20260501204709 47 317 3.0 5.0 0.00 0.00 0.00 43 1019.0